Find Starlink 36924

NORAD ID: 68054 Int'l Des: 2026-041 Owner: SPXS Country: US Constellation: starlink operational
LEOCIRCULAR

Live-Position

3D-Globus wird geladen...

Über Starlink 36924

Beschreibung wird geladen...

Nächste Überflüge

Passes for default location (London). Set your location on the main map for personalized predictions.

Höhenverlauf

Loading altitude history...

Zweizeiliger Elementsatz

1 68054U 26041Q 26106.66109056 .00033328 00000-0 60445-3 0 9995
2 68054 53.1590 234.8229 0000735 52.1825 307.9251 15.49322190 7185
Epoch: 16. Apr. 2026 • Age: 18 hours

Aktueller Status

Höhe 430.7 km
Geschwindigkeit 7.65 km/s
Subsatellitenpunkt -37.12°S, 162.24°W
Startdatum 2. März 2026
Alter 0.1 years
Typ internet

Technische Details

Klassifizierung Payload
Masse 575.00 kg
Trockenmasse 530.00 kg
Gesamtmasse 575.00 kg
Länge 0.30 m
Durchmesser 4.10 m
Spannweite 29.00 m
Form Box + pan
Hersteller SPXS
Bus-Typ Starlink V2MO
Phasenstatus In Orbit
Besitzer/Staat SPXS/US

Most Searched